�N����,����,�~����,�C��,���x,�C��,����,���ϕ���,�ő�u�ԕ���,�ő厞����,���˗�,�I�_���x,�n�����x,�ő啗���N��,DTYPE
"18/10/18","00:10",0.0,13.8,89.4,1008.6,342.9,1.3,2.7,354.4,0.00,12.1,18.3,"00:01:28",1
"18/10/18","00:20",0.0,13.9,89.7,1008.3,342.3,1.6,2.9,342.9,0.00,12.3,18.4,"00:17:36",1
"18/10/18","00:30",0.0,13.8,90.1,1008.3,330.9,1.6,2.5,348.5,0.00,12.2,18.2,"00:28:24",1
"18/10/18","00:40",0.0,13.7,90.3,1008.3,331.0,1.5,2.4,327.5,0.00,12.2,18.3,"00:34:16",1
"18/10/18","00:50",0.0,14.1,90.7,1008.8,331.9,2.1,3.5,336.4,0.00,12.6,18.2,"00:44:00",1
"18/10/18","01:00",0.0,14.2,90.0,1008.3,334.0,2.5,4.7,332.6,0.00,12.6,18.0,"00:54:56",1
"18/10/18","01:10",0.0,14.2,90.3,1008.3,333.0,2.5,3.9,339.4,0.00,12.7,18.2,"01:02:24",1
"18/10/18","01:20",0.0,14.2,90.0,1008.3,333.8,2.3,4.1,337.5,0.00,12.6,18.3,"01:18:32",1
"18/10/18","01:30",0.0,14.1,89.9,1008.1,331.3,2.5,4.2,334.8,0.00,12.5,18.2,"01:26:08",1
"18/10/18","01:40",0.0,13.9,90.1,1008.6,319.8,1.7,2.9,341.6,0.00,12.3,18.1,"01:32:48",1
"18/10/18","01:50",0.0,13.7,90.7,1008.6,295.8,1.0,3.9,324.5,0.00,12.2,18.0,"01:47:20",1
"18/10/18","02:00",0.0,13.6,91.4,1008.8,309.3,1.0,2.4,338.1,0.00,12.3,18.1,"01:59:52",1
"18/10/18","02:10",0.0,13.7,91.0,1008.6,329.3,1.6,2.5,337.0,0.00,12.3,18.0,"02:02:24",1
"18/10/18","02:20",0.0,13.6,91.3,1008.6,329.1,1.7,2.8,337.0,0.00,12.2,18.1,"02:13:04",1
"18/10/18","02:30",0.0,13.3,91.3,1008.8,316.4,1.3,2.0,334.4,0.00,12.0,17.9,"02:20:56",1
"18/10/18","02:40",0.0,13.3,92.0,1009.0,322.0,1.2,1.7,320.1,0.00,12.1,17.8,"02:33:20",1
"18/10/18","02:50",0.0,13.0,92.1,1009.3,296.4,1.0,1.4,340.2,0.00,11.8,17.9,"02:42:48",1
"18/10/18","03:00",0.0,12.8,92.5,1008.8,308.8,1.3,1.7,323.0,0.00,11.7,18.0,"02:55:10",1
"18/10/18","03:10",0.0,12.6,92.9,1009.3,317.0,1.6,2.0,315.7,0.00,11.5,17.8,"03:02:10",1
"18/10/18","03:20",0.0,12.9,93.3,1009.0,330.1,2.0,3.4,307.7,0.00,11.9,17.8,"03:12:32",1
"18/10/18","03:30",0.0,12.9,93.5,1008.6,325.4,1.7,2.8,344.4,0.00,11.9,18.0,"03:28:52",1
"18/10/18","03:40",0.0,13.0,94.1,1008.6,326.7,2.3,4.5,336.2,0.00,12.1,17.9,"03:39:48",1
"18/10/18","03:50",0.0,13.1,93.5,1008.8,316.4,2.3,4.0,317.9,0.00,12.1,17.7,"03:42:24",1
"18/10/18","04:00",0.0,12.9,93.5,1008.8,305.1,1.5,2.1,296.1,0.00,11.9,17.7,"03:52:48",1
"18/10/18","04:10",0.0,12.9,93.4,1009.3,328.6,1.7,2.6,328.8,0.00,11.9,17.7,"04:00:16",1
"18/10/18","04:20",0.0,12.8,93.8,1009.5,335.0,1.5,2.2,335.8,0.00,11.9,17.7,"04:13:28",1
"18/10/18","04:30",0.0,12.5,93.5,1009.0,327.8,1.2,2.4,312.3,0.00,11.5,17.7,"04:29:10",1
"18/10/18","04:40",0.0,12.6,93.9,1009.3,318.4,2.0,2.9,328.6,0.00,11.7,17.5,"04:35:10",1
"18/10/18","04:50",0.0,12.7,93.9,1009.0,319.3,2.0,3.2,331.3,0.00,11.8,17.5,"04:47:40",1
"18/10/18","05:00",0.0,12.5,93.9,1009.3,317.2,1.6,2.4,311.1,0.00,11.6,17.6,"04:59:20",1
"18/10/18","05:10",0.0,12.3,94.0,1009.5,310.6,1.3,2.2,319.7,0.00,11.4,17.4,"05:03:22",1
"18/10/18","05:20",0.0,12.0,94.1,1009.7,300.5,1.1,1.6,310.9,0.00,11.1,17.6,"05:11:44",1
"18/10/18","05:30",0.0,11.8,94.4,1009.7,311.6,0.5,1.4,313.6,0.00,11.0,17.4,"05:29:02",1
"18/10/18","05:40",0.0,12.1,95.5,1009.5,317.2,1.6,3.5,325.1,0.00,11.4,17.4,"05:39:44",1
"18/10/18","05:50",0.0,12.3,94.7,1009.5,326.2,2.6,3.5,336.3,0.00,11.5,17.4,"05:49:32",1
"18/10/18","06:00",0.0,12.2,94.5,1009.7,326.8,2.3,3.7,335.7,0.00,11.4,17.4,"05:54:52",1
"18/10/18","06:10",0.0,12.6,94.5,1009.7,324.7,2.5,3.9,319.1,0.00,11.8,17.4,"06:06:02",1
"18/10/18","06:20",0.0,12.6,94.4,1009.5,327.8,3.1,5.2,340.6,0.00,11.8,17.3,"06:13:36",1
"18/10/18","06:30",0.0,12.5,94.5,1009.7,330.5,2.1,4.3,320.9,0.00,11.7,17.4,"06:22:50",1
"18/10/18","06:40",0.0,12.4,94.5,1009.7,327.6,1.8,3.2,338.4,0.00,11.6,16.9,"06:39:10",1
"18/10/18","06:50",0.0,12.5,94.5,1009.7,326.6,1.5,2.7,330.1,0.00,11.7,17.2,"06:42:24",1
"18/10/18","07:00",0.0,12.8,94.3,1009.7,337.3,0.7,1.7,326.4,0.00,11.9,17.2,"06:50:24",1
"18/10/18","07:10",0.0,13.1,93.7,1010.2,337.5,1.2,1.9,319.9,0.00,12.1,17.2,"07:06:40",1
"18/10/18","07:20",0.0,13.3,93.9,1010.2,336.7,1.6,2.5,342.1,0.01,12.4,17.2,"07:10:48",1
"18/10/18","07:30",0.0,13.5,93.5,1010.4,333.2,2.1,3.1,338.6,0.02,12.5,17.3,"07:28:56",1
"18/10/18","07:40",0.0,13.7,92.7,1010.4,329.4,2.5,3.9,335.6,0.04,12.6,17.3,"07:38:56",1
"18/10/18","07:50",0.0,14.2,91.8,1010.4,323.4,2.5,4.7,333.8,0.06,12.9,17.3,"07:47:28",1
"18/10/18","08:00",0.0,14.4,90.8,1010.4,326.1,2.7,3.9,322.2,0.08,13.0,17.3,"07:51:04",1
"18/10/18","08:10",0.0,14.9,89.3,1010.4,322.9,2.0,2.9,330.0,0.10,13.2,17.5,"08:03:20",1
"18/10/18","08:20",0.0,14.9,88.0,1010.4,321.4,2.0,3.4,317.9,0.10,13.0,17.4,"08:12:40",1
"18/10/18","08:30",0.0,15.7,87.4,1010.7,331.4,1.8,3.7,322.8,0.15,13.7,17.5,"08:21:04",1
"18/10/18","08:40",0.0,16.6,84.1,1010.7,320.5,1.5,3.3,357.9,0.20,13.9,17.7,"08:36:48",1
"18/10/18","08:50",0.0,16.3,82.1,1010.7,315.4,1.0,2.7,339.5,0.19,13.3,17.7,"08:40:32",1
"18/10/18","09:00",0.0,16.4,82.1,1010.2,297.8,0.8,1.8,309.4,0.13,13.4,17.6,"08:59:28",1
"18/10/18","09:10",0.0,16.5,82.6,1010.2,283.1,1.1,2.6,324.7,0.16,13.6,18.0,"09:07:44",1
"18/10/18","09:20",0.0,16.9,81.5,1010.7,309.0,1.2,2.6,331.8,0.21,13.8,18.0,"09:10:40",1
"18/10/18","09:30",0.0,17.1,80.5,1010.2,292.9,1.2,2.9,337.4,0.20,13.8,18.1,"09:28:48",1
"18/10/18","09:40",0.0,17.4,79.4,1010.2,291.1,1.3,3.2,332.2,0.23,13.8,18.2,"09:30:56",1
"18/10/18","09:50",0.0,17.8,78.6,1010.2,264.5,0.8,2.0,232.9,0.28,14.1,18.2,"09:46:08",1
"18/10/18","10:00",0.0,18.0,73.9,1010.0,321.8,1.0,2.4,336.5,0.28,13.3,18.4,"09:50:56",1
"18/10/18","10:10",0.0,18.4,72.8,1009.5,333.8,0.6,1.8,332.2,0.27,13.5,18.5,"10:00:24",1
"18/10/18","10:20",0.0,18.9,70.2,1010.0,359.4,0.5,1.6,1.6,0.28,13.4,18.5,"10:13:04",1
"18/10/18","10:30",0.0,19.2,69.0,1009.7,352.3,0.5,1.3,352.6,0.32,13.4,18.6,"10:20:56",1
"18/10/18","10:40",0.0,20.0,66.3,1009.5,45.6,0.5,1.3,349.1,0.42,13.6,18.7,"10:30:40",1
"18/10/18","10:50",0.0,20.0,63.4,1009.5,324.0,0.8,1.8,337.4,0.44,12.9,19.1,"10:47:20",1
"18/10/18","11:00",0.0,20.0,63.7,1008.8,212.7,1.0,2.1,131.5,0.44,13.0,19.2,"10:58:16",1
"18/10/18","11:10",0.0,20.5,59.7,1008.8,97.9,0.7,1.9,119.2,0.40,12.4,19.3,"11:05:28",1
"18/10/18","11:20",0.0,21.2,58.8,1009.3,13.1,0.8,2.4,357.5,0.39,12.9,19.3,"11:14:08",1
"18/10/18","11:30",0.0,20.6,56.7,1008.8,140.1,0.7,3.2,139.8,0.35,11.8,19.5,"11:29:36",1
"18/10/18","11:40",0.0,21.3,56.4,1008.3,174.6,0.7,2.0,127.8,0.44,12.3,19.7,"11:37:52",1
"18/10/18","11:50",0.0,21.7,55.3,1008.1,290.5,0.6,2.0,182.9,0.44,12.4,19.8,"11:40:16",1
"18/10/18","12:00",0.0,22.1,55.1,1008.3,13.4,0.7,2.1,13.1,0.42,12.7,19.8,"11:56:48",1
"18/10/18","12:10",0.0,22.1,56.9,1007.8,22.9,1.0,2.1,359.0,0.42,13.2,20.0,"12:04:16",1
"18/10/18","12:20",0.0,22.2,55.7,1007.1,83.3,0.8,2.8,344.6,0.42,13.0,20.2,"12:18:56",1
"18/10/18","12:30",0.0,21.9,56.4,1007.4,37.8,0.8,2.5,110.6,0.36,12.9,20.3,"12:29:52",1
"18/10/18","12:40",0.0,21.6,56.9,1007.1,226.7,0.7,1.8,348.3,0.23,12.7,20.6,"12:32:40",1
"18/10/18","12:50",0.0,22.0,58.5,1007.1,254.1,1.1,3.1,206.0,0.24,13.5,20.5,"12:44:32",1
"18/10/18","13:00",0.0,22.2,56.1,1007.1,317.4,1.0,2.6,311.7,0.27,13.1,20.6,"12:51:20",1
"18/10/18","13:10",0.0,21.9,54.8,1007.4,292.5,0.8,2.2,312.5,0.22,12.4,20.7,"13:05:52",1
"18/10/18","13:20",0.0,22.0,54.4,1007.1,324.2,1.1,2.4,329.9,0.22,12.4,20.4,"13:13:04",1
"18/10/18","13:30",0.0,22.3,56.1,1007.1,256.4,0.7,1.6,263.3,0.25,13.2,20.7,"13:26:24",1
"18/10/18","13:40",0.0,22.2,56.0,1006.9,324.7,1.3,3.4,352.3,0.35,13.1,20.7,"13:34:32",1
"18/10/18","13:50",0.0,23.0,54.5,1007.1,282.3,0.7,2.8,341.0,0.38,13.4,20.7,"13:49:44",1
"18/10/18","14:00",0.0,22.4,58.0,1006.7,321.9,1.2,3.9,347.9,0.30,13.8,20.8,"13:57:12",1
"18/10/18","14:10",0.0,23.0,54.6,1006.9,318.0,1.6,2.8,294.5,0.40,13.4,21.0,"14:05:12",1
"18/10/18","14:20",0.0,22.8,55.9,1006.9,280.8,1.2,2.7,325.5,0.33,13.6,20.9,"14:19:36",1
"18/10/18","14:30",0.0,23.3,55.4,1006.9,285.0,1.0,2.0,327.8,0.34,13.9,21.1,"14:24:24",1
"18/10/18","14:40",0.0,23.0,53.8,1006.7,322.4,1.5,2.8,336.4,0.32,13.2,20.9,"14:34:48",1
"18/10/18","14:50",0.0,23.4,54.1,1006.7,242.2,1.1,2.5,228.2,0.30,13.6,21.2,"14:49:28",1
"18/10/18","15:00",0.0,23.0,51.8,1006.7,243.8,1.6,4.4,225.8,0.29,12.6,21.3,"14:56:24",1
"18/10/18","15:10",0.0,23.2,50.5,1006.9,260.4,1.2,3.9,221.4,0.26,12.4,21.4,"15:00:32",1
"18/10/18","15:20",0.0,23.1,49.8,1006.9,269.2,1.5,2.6,226.8,0.23,12.1,21.3,"15:17:20",1
"18/10/18","15:30",0.0,23.4,50.4,1006.9,269.3,1.1,2.2,295.2,0.21,12.6,21.3,"15:21:20",1
"18/10/18","15:40",0.0,23.1,50.5,1007.1,252.5,1.3,3.3,226.6,0.18,12.3,21.5,"15:33:12",1
"18/10/18","15:50",0.0,23.0,50.3,1007.4,270.5,1.1,3.1,235.3,0.16,12.2,21.2,"15:48:24",1
"18/10/18","16:00",0.0,23.2,50.4,1007.1,252.0,1.3,3.6,225.2,0.13,12.4,21.0,"15:50:24",1
"18/10/18","16:10",0.0,23.4,47.3,1007.1,283.6,1.2,2.4,307.3,0.11,11.6,21.4,"16:00:48",1
"18/10/18","16:20",0.0,23.2,48.3,1007.4,272.8,1.0,1.9,249.0,0.08,11.7,21.2,"16:18:32",1
"18/10/18","16:30",0.0,23.1,49.4,1007.1,281.2,0.8,1.7,320.5,0.06,12.0,20.9,"16:25:44",1
"18/10/18","16:40",0.0,22.7,50.9,1007.6,280.9,1.0,1.8,266.1,0.04,12.1,20.9,"16:37:44",1
"18/10/18","16:50",0.0,22.3,56.4,1007.6,281.8,0.8,1.2,313.9,0.03,13.3,20.9,"16:49:12",1
"18/10/18","17:00",0.0,21.5,58.7,1007.8,275.2,0.8,1.6,253.4,0.01,13.1,20.7,"16:59:28",1
"18/10/18","17:10",0.0,20.2,62.7,1008.1,265.3,1.1,1.8,271.4,0.00,12.9,20.7,"17:02:40",1
"18/10/18","17:20",0.0,19.5,66.9,1008.1,276.7,1.0,1.4,264.9,0.00,13.2,20.7,"17:13:04",1
"18/10/18","17:30",0.0,18.9,69.3,1008.1,278.0,0.8,1.7,261.4,0.00,13.2,20.6,"17:22:56",1
"18/10/18","17:40",0.0,18.6,70.3,1008.1,286.2,0.8,1.7,254.8,0.00,13.1,20.5,"17:34:08",1
"18/10/18","17:50",0.0,18.1,72.3,1008.6,287.5,1.0,2.0,321.8,0.00,13.1,20.6,"17:40:02",1
"18/10/18","18:00",0.0,17.8,74.0,1009.0,284.3,1.2,2.5,312.1,0.00,13.1,20.2,"17:58:56",1
"18/10/18","18:10",0.0,17.5,74.6,1009.0,271.6,1.2,2.1,256.5,0.00,13.0,20.2,"18:05:20",1
"18/10/18","18:20",0.0,17.3,75.4,1009.0,273.1,1.2,1.9,299.8,0.00,13.0,19.9,"18:15:12",1
"18/10/18","18:30",0.0,17.2,76.6,1009.7,317.3,1.2,2.8,350.2,0.00,13.1,20.0,"18:27:28",1
"18/10/18","18:40",0.0,17.0,77.7,1009.5,317.7,1.5,2.7,334.9,0.00,13.1,19.8,"18:31:04",1
"18/10/18","18:50",0.0,16.7,79.0,1009.5,264.3,0.8,1.9,249.5,0.00,13.1,19.9,"18:47:12",1
"18/10/18","19:00",0.0,16.7,78.4,1009.7,283.4,1.2,2.2,256.1,0.00,13.0,19.8,"18:50:40",1
"18/10/18","19:10",0.0,16.7,79.4,1010.0,312.1,1.2,3.6,331.3,0.00,13.2,19.8,"19:09:44",1
"18/10/18","19:20",0.0,16.6,78.6,1010.0,316.1,1.6,3.9,345.0,0.00,12.9,19.5,"19:13:04",1
"18/10/18","19:30",0.0,16.5,79.5,1010.0,301.6,1.3,2.4,331.2,0.00,13.0,19.7,"19:24:32",1
"18/10/18","19:40",0.0,16.3,79.7,1010.0,276.1,1.0,1.6,288.7,0.00,12.8,19.6,"19:30:02",1
"18/10/18","19:50",0.0,16.2,80.1,1010.4,289.5,1.0,1.7,316.1,0.00,12.8,19.6,"19:45:28",1
"18/10/18","20:00",0.0,16.4,80.4,1010.2,304.7,1.3,3.6,336.0,0.00,13.1,19.4,"19:59:44",1
"18/10/18","20:10",0.0,16.5,80.3,1010.4,335.4,2.0,4.1,340.5,0.00,13.1,19.3,"20:00:40",1
"18/10/18","20:20",0.0,16.4,80.5,1010.4,326.9,1.6,2.8,322.4,0.00,13.1,19.4,"20:19:04",1
"18/10/18","20:30",0.0,16.7,80.4,1010.4,325.8,1.7,3.4,319.4,0.00,13.4,19.2,"20:29:20",1
"18/10/18","20:40",0.0,16.7,79.7,1010.4,335.8,2.0,3.7,319.8,0.00,13.2,19.2,"20:36:00",1
"18/10/18","20:50",0.0,16.8,79.3,1010.7,332.6,2.1,3.7,334.2,0.00,13.2,19.2,"20:48:24",1
"18/10/18","21:00",0.0,16.5,79.5,1010.7,334.6,2.3,5.1,327.4,0.00,13.0,19.2,"20:54:48",1
"18/10/18","21:10",0.0,16.1,80.6,1010.9,331.6,1.6,3.3,337.5,0.00,12.8,19.1,"21:08:32",1
"18/10/18","21:20",0.0,16.2,82.2,1010.9,334.7,2.1,4.2,340.8,0.00,13.2,19.2,"21:10:02",1
"18/10/18","21:30",0.0,16.3,82.0,1010.9,339.5,2.2,3.9,338.1,0.00,13.3,19.1,"21:20:08",1
"18/10/18","21:40",0.0,16.4,82.2,1010.9,335.4,2.6,4.8,346.2,0.00,13.4,19.0,"21:34:00",1
"18/10/18","21:50",0.0,16.4,82.1,1010.7,335.1,2.8,4.1,333.4,0.00,13.4,18.8,"21:40:32",1
"18/10/18","22:00",0.0,16.3,82.7,1010.7,335.1,2.5,3.7,334.9,0.00,13.4,19.0,"21:59:52",1
"18/10/18","22:10",0.0,16.2,83.1,1010.9,334.0,2.6,4.8,327.9,0.00,13.4,18.8,"22:06:40",1
"18/10/18","22:20",0.0,16.2,83.4,1010.9,325.5,2.2,3.4,335.2,0.00,13.4,18.9,"22:13:20",1
"18/10/18","22:30",0.0,16.0,83.2,1011.2,327.5,2.6,4.8,339.0,0.00,13.2,18.9,"22:24:16",1
"18/10/18","22:40",0.0,16.0,83.6,1010.7,337.2,2.0,3.5,322.3,0.00,13.3,18.8,"22:30:40",1
"18/10/18","22:50",0.0,15.9,84.3,1011.2,339.6,1.6,3.7,341.1,0.00,13.3,18.9,"22:40:32",1
"18/10/18","23:00",0.0,15.8,85.1,1010.7,340.8,1.8,3.6,328.9,0.00,13.3,18.9,"22:58:16",1
"18/10/18","23:10",0.0,15.6,85.5,1010.4,339.3,1.8,3.4,348.7,0.00,13.2,18.7,"23:00:56",1
"18/10/18","23:20",0.0,15.4,85.8,1011.2,335.1,1.8,3.4,334.1,0.00,13.1,18.6,"23:13:04",1
"18/10/18","23:30",0.0,15.2,86.4,1011.4,337.6,1.7,2.7,340.1,0.00,13.0,18.7,"23:26:00",1
"18/10/18","23:40",0.0,15.0,86.8,1010.9,341.2,1.6,3.2,335.3,0.00,12.9,18.7,"23:39:52",1
"18/10/18","23:50",0.0,14.8,87.3,1010.9,331.6,1.5,2.7,334.8,0.00,12.8,18.6,"23:47:52",1
"18/10/18","24:00",0.0,14.7,87.8,1010.7,341.0,1.8,3.6,338.9,0.00,12.7,18.7,"23:56:00",1
